CAPE
0 0 0 0 0 0 0 0 0 0 0 0 0 0 0 0 0 0 0 0 0 0 0 0 0 0 0 14 33 6 0 0 0 0 0 0 44 31 53 39 115 199 185
7 0 0 0 0 0 0 0 0 0 0 0 0 0 0 0 0 0 0 0 0 0 0 0 0 0 0 0 0 49 32 8 0 0 0 0 0 0 36 82 105 187 230
0 0 0 0 0 0 0 0 0 0 0 0 0 0 0 0 0 0 0 0 0 0 0 0 0 0 0 0 0 0 10 51 27 0 35 13 0 0 0 23 71 102 156
0 0 0 0 0 0 0 0 0 0 0 0 0 0 0 0 0 0 0 0 0 0 0 0 0 0 0 0 0 0 0 0 29 27 43 54 49 0 0 0 13 33 83
0 0 0 0 0 0 0 0 0 0 0 0 0 0 0 0 0 0 0 0 0 0 0 0 0 0 0 0 0 0 0 11 21 31 45 51 26 0 0 0 0 0 5
0 0 0 0 0 0 0 0 0 0 0 0 0 0 0 0 0 0 0 0 0 0 0 0 0 0 0 0 0 0 0 0 22 74 50 26 51 37 14 0 0 0 0
0 0 0 0 0 0 0 0 0 0 0 0 0 0 0 0 0 0 0 0 0 0 0 0 0 0 0 0 0 0 0 0 0 30 117 42 28 39 17 0 0 0 0
0 0 0 0 0 0 0 0 0 0 0 0 0 0 0 0 0 0 0 0 0 0 0 0 0 0 0 0 0 0 0 0 0 0 0 59 77 28 18 19 0 0 0
0 0 0 0 0 0 0 0 0 0 0 0 0 0 0 0 0 0 0 0 0 0 0 0 0 0 0 0 0 0 0 0 0 0 0 0 14 57 51 0 0 0 0
0 0 0 0 0 0 0 0 0 0 0 0 0 0 0 0 2 0 0 0 0 0 0 0 0 0 0 0 0 0 0 0 0 0 0 0 0 19 82 5 0 0 0
0 0 0 0 0 0 0 0 0 0 0 0 0 0 0 0 0 21 1 0 2 0 0 0 0 0 0 0 0 0 0 0 0 0 0 0 0 0 0 0 0 0 0
0 0 0 0 0 0 0 0 0 0 0 0 0 0 0 0 0 2 1 0 0 0 0 0 0 0 0 0 0 0 0 0 0 0 0 1 0 0 0 0 0 0 3
0 0 0 0 0 0 0 0 0 0 0 0 0 0 0 0 0 0 1 0 0 0 0 0 0 0 0 0 0 0 0 0 0 5 7 4 0 0 0 0 0 0 0
0 0 0 0 0 0 0 0 0 0 0 0 0 0 0 0 0 0 0 0 0 0 0 0 0 0 0 0 0 0 0 0 0 2 22 13 3 2 0 0 0 0 0
0 0 0 0 0 0 0 0 0 0 0 0 0 0 0 0 0 0 0 0 0 0 0 0 0 0 0 0 0 0 0 0 5 4 0 0 0 0 1 0 0 0 0
0 0 0 0 0 0 0 0 0 0 0 0 0 0 0 0 0 0 0 0 0 0 0 0 0 0 0 0 0 0 0 0 4 0 0 0 0 0 0 1 0 0 0
0 0 0 0 0 0 0 0 0 0 0 0 0 0 0 0 0 0 0 0 0 0 0 0 0 0 0 0 0 0 0 0 0 0 0 0 0 0 0 0 2 0 0
0 0 0 0 0 0 0 0 0 0 0 0 0 0 0 0 0 0 0 0 0 0 0 0 0 0 0 0 0 0 0 0 0 0 0 0 0 0 0 0 0 5 6
0 0 1 0 0 0 0 0 0 0 0 0 0 0 0 0 0 0 0 0 0 0 0 0 0 0 0 0 0 0 0 0 0 0 0 0 0 0 0 0 0 3 6
0 0 0 0 0 0 0 0 0 0 0 0 0 0 0 0 0 0 0 0 0 0 0 0 0 0 0 0 0 0 0 0 0 0 0 0 0 0 0 0 1 0 0
7 4 0 0 0 0 0 0 0 0 0 0 0 0 0 0 8 3 2 1 0 1 0 2 1 0 0 0 0 0 0 0 0 0 0 0 0 0 0 0 1 0 0
1 0 0 0 0 0 0 0 0 0 0 0 0 0 0 0 0 2 0 4 7 0 0 3 0 0 0 0 0 0 0 0 0 0 0 0 0 0 0 0 0 0 0
0 0 0 0 0 0 0 0 0 0 0 0 0 0 0 0 0 0 0 0 0 0 1 1 0 0 4 0 0 0 0 0 0 0 0 0 0 0 0 0 0 0 0
0 0 0 0 0 0 0 0 0 0 0 0 0 0 0 0 0 2 0 1 0 0 0 0 0 0 0 0 0 0 0 0 0 0 0 0 0 0 0 0 0 0 0
0 0 0 0 0 0 0 0 0 0 0 0 0 0 0 0 0 9 1 0 0 0 1 2 2 3 0 0 1 0 0 1 1 0 0 0 0 0 0 0 0 0 0
0 0 0 0 0 0 0 0 0 0 0 0 0 0 0 2 4 4 3 0 0 0 0 1 0 0 0 0 0 0 0 0 3 0 0 0 0 0 0 0 0 0 0
CIN
-0 -0 -0 -0 -0 -0 -0 -0 -0 -0 -0 -0 -0 -0 -0 -0 -0 -0 -0 -0 -0 -0 -0 -0 -0 -0 -0 -4 -10 -12 -0 -0 -0 -0 -0 -0 -30 -34 -51 -29 -19 -19 -20
-205 -0 -0 -0 -0 -0 -0 -0 -0 -0 -0 -0 -0 -0 -0 -0 -0 -0 -0 -0 -0 -0 -0 -0 -0 -0 -0 -0 -2 -8 -14 -20 -0 -0 -0 -0 -0 -0 -51 -42 -24 -13 -15
-16 -0 -0 -0 -0 -0 -0 -0 -0 -0 -0 -0 -0 -0 -0 -0 -0 -0 -0 -0 -0 -0 -0 -0 -0 -0 -0 -0 -0 -0 -19 -4 -28 -0 -38 -41 -0 -0 -0 -47 -53 -23 -11
-0 -0 -0 -0 -0 -0 -0 -0 -0 -0 -0 -0 -0 -0 -0 -0 -0 -0 -0 -0 -0 -0 -0 -0 -0 -0 -0 -0 -0 -0 -0 -0 -2 -14 -24 -37 -37 -0 -0 -0 -43 -47 -28
-0 -0 -0 -0 -0 -0 -0 -0 -0 -0 -0 -0 -0 -0 -0 -0 -0 -0 -0 -0 -0 -0 -0 -0 -0 -0 -0 -0 -0 -0 -0 -123 -50 -16 -1 -16 -38 -0 -0 -0 -0 -0 -28
-0 -0 -0 -0 -0 -0 -0 -0 -0 -0 -0 -0 -0 -0 -0 -0 -0 -0 -0 -0 -0 -0 -0 -0 -0 -0 -0 -0 -0 -0 -0 -0 -103 -27 -5 -1 -8 -31 -35 -0 -0 -0 -0
-0 -0 -0 -0 -0 -0 -0 -0 -0 -0 -0 -0 -0 -0 -0 -0 -0 -0 -0 -0 -0 -0 -0 -0 -0 -0 -0 -0 -0 -0 -0 -0 -0 -89 -12 -3 -6 -8 -29 -0 -0 -0 -0
-0 -0 -0 -0 -0 -0 -0 -0 -0 -0 -0 -0 -0 -0 -0 -0 -0 -0 -0 -0 -0 -0 -0 -0 -0 -0 -0 -0 -0 -0 -0 -0 -0 -0 -0 -47 -6 -3 -12 -24 -0 -0 -0
-0 -0 -0 -0 -0 -0 -0 -0 -0 -0 -0 -0 -0 -0 -0 -0 -0 -0 -0 -0 -0 -0 -0 -0 -0 -0 -0 -0 -0 -0 -0 -0 -0 -0 -0 -0 -32 -5 -3 -0 -0 -0 -0
-0 -0 -0 -0 -0 -0 -0 -0 -0 -0 -0 -0 -0 -0 -0 -0 -1 -0 -0 -0 -0 -0 -0 -0 -0 -0 -0 -0 -0 -0 -0 -0 -0 -0 -0 -0 -0 -33 -1 -1 -0 -0 -0
-0 -0 -0 -0 -0 -0 -0 -0 -0 -0 -0 -0 -0 -0 -0 -0 -0 -0 -0 -0 -2 -0 -0 -0 -0 -0 -0 -0 -0 -0 -0 -0 -0 -0 -0 -0 -0 -0 -0 -0 -0 -0 -0
-0 -0 -0 -0 -0 -0 -0 -0 -0 -0 -0 -0 -0 -0 -0 -0 -0 -0 -0 -0 -0 -0 -0 -0 -0 -0 -0 -0 -0 -0 -0 -0 -0 -0 -0 -4 -0 -0 -0 -0 -0 -0 -6
-0 -0 -0 -0 -0 -0 -0 -0 -0 -0 -0 -0 -0 -0 -0 -0 -0 -0 -1 -0 -0 -0 -0 -0 -0 -0 -0 -0 -0 -0 -0 -0 -0 -16 -19 -14 -0 -0 -0 -0 -0 -0 -0
-0 -0 -0 -0 -0 -0 -0 -0 -0 -0 -0 -0 -0 -0 -0 -0 -0 -0 -0 -0 -0 -0 -0 -0 -0 -0 -0 -0 -0 -0 -0 -0 -2 -2 -3 -36 -26 -0 -0 -0 -0 -0 -0
-0 -0 -0 -0 -0 -0 -0 -0 -0 -0 -0 -0 -0 -0 -0 -0 -0 -0 -0 -0 -0 -0 -0 -0 -0 -0 -0 -0 -0 -0 -0 -0 -25 -51 -0 -0 -0 -0 -0 -0 -0 -0 -0
-0 -0 -0 -0 -0 -0 -0 -0 -0 -0 -0 -0 -0 -0 -0 -0 -0 -0 -0 -0 -0 -0 -0 -0 -0 -0 -0 -0 -0 -0 -0 -0 -23 -0 -0 -0 -0 -0 -0 -3 -7 -0 -0
-0 -0 -0 -0 -0 -0 -0 -0 -0 -0 -0 -0 -0 -0 -0 -0 -0 -0 -0 -0 -0 -0 -0 -0 -0 -0 -0 -0 -0 -0 -0 -0 -0 -0 -0 -0 -0 -0 -0 -0 -0 -0 -0
-0 -0 -0 -0 -0 -0 -0 -0 -0 -0 -0 -0 -0 -0 -0 -0 -0 -0 -0 -0 -0 -0 -0 -0 -0 -0 -0 -0 -0 -0 -0 -0 -0 -0 -0 -0 -0 -0 -0 -0 -1 -1 -6
-0 -0 -21 -0 -0 -0 -0 -0 -0 -0 -0 -0 -0 -0 -0 -0 -0 -0 -0 -0 -0 -0 -0 -1 -0 -0 -0 -0 -0 -0 -0 -0 -0 -0 -0 -0 -0 -0 -0 -0 -0 -8 -4
-9 -10 -0 -0 -0 -0 -0 -0 -0 -0 -0 -0 -0 -0 -0 -0 -0 -0 -0 -0 -0 -0 -0 -0 -0 -0 -0 -0 -0 -0 -0 -0 -0 -0 -0 -0 -0 -0 -0 -0 -1 -0 -0
-20 -18 -0 -0 -0 -0 -0 -0 -0 -0 -0 -0 -0 -0 -0 -0 -1 -1 -0 -3 -4 -1 -1 -0 -0 -0 -0 -0 -0 -0 -0 -0 -0 -0 -0 -0 -0 -0 -0 -0 -0 -0 -0
-20 -0 -0 -0 -0 -0 -0 -0 -0 -0 -0 -0 -0 -0 -0 -0 -0 -1 -1 -1 -1 -0 -0 -0 -0 -0 -0 -0 -0 -0 -0 -0 -0 -0 -0 -0 -0 -0 -0 -0 -0 -0 -0
-0 -0 -0 -0 -0 -0 -0 -0 -0 -0 -0 -0 -0 -0 -0 -0 -0 -0 -0 -0 -1 -0 -0 -4 -0 -0 -0 -3 -0 -0 -0 -0 -0 -0 -0 -0 -0 -0 -0 -0 -0 -0 -0
-0 -0 -0 -0 -0 -0 -0 -0 -0 -0 -0 -0 -0 -0 -0 -0 -0 -1 -2 -0 -0 -0 -0 -0 -0 -0 -0 -0 -0 -0 -0 -0 -0 -0 -0 -0 -0 -0 -0 -0 -0 -0 -0
-0 -0 -0 -0 -0 -0 -0 -0 -0 -0 -0 -0 -0 -0 -0 -0 -0 -1 -1 -0 -0 -0 -0 -0 -0 -0 -0 -0 -0 -0 -0 -0 -0 -0 -0 -0 -0 -0 -0 -0 -0 -0 -0
-0 -0 -0 -0 -0 -0 -0 -0 -0 -0 -0 -0 -0 -0 -0 -1 -1 -0 -1 -0 -0 -1 -0 -0 -0 -0 -0 -0 -0 -0 -0 -0 -1 -0 -0 -0 -0 -0 -0 -0 -0 -0 -0
Wind_Speed
19 20 21 23 24 27 28 29 30 31 31 32 32 32 31 31 32 32 32 32 32 34 36 36 37 37 37 35 32 30 29 29 31 32 30 30 30 30 28 32 32 32 32
18 21 23 25 26 28 29 31 32 32 32 32 32 31 31 31 33 33 33 33 34 34 35 35 35 36 37 38 38 36 34 32 31 33 34 33 32 31 31 30 30 29 35
22 22 25 26 29 30 31 33 34 32 33 33 35 33 34 35 35 34 32 32 32 33 33 34 35 36 37 38 38 38 37 35 34 32 31 34 33 32 32 32 31 34 33
24 24 26 29 30 30 32 34 34 35 35 36 37 37 36 37 37 33 32 33 33 33 35 36 37 37 36 36 38 39 39 39 36 36 34 31 31 32 32 31 32 32 34
24 26 27 29 29 31 33 34 34 36 37 39 39 37 39 37 36 31 33 34 34 35 36 38 39 39 39 39 39 39 40 40 40 37 35 35 34 32 31 31 31 32 33
26 27 29 31 31 32 34 35 36 36 36 39 39 40 39 36 32 31 34 35 36 37 39 40 41 42 42 42 41 41 40 40 41 41 38 35 34 32 31 31 32 32 32
27 29 30 30 32 34 35 35 36 38 39 41 40 45 39 32 33 36 35 36 38 39 40 42 43 44 44 45 44 43 42 41 40 41 41 39 36 34 32 31 31 32 32
28 28 30 32 34 34 35 35 37 37 37 39 42 42 44 43 35 41 38 38 40 41 43 45 46 46 46 45 45 46 44 43 42 41 40 40 38 36 35 32 32 33 32
29 30 31 32 33 33 34 35 36 38 41 38 37 39 46 48 50 40 43 39 42 43 46 47 48 45 46 45 46 45 45 44 44 43 42 42 41 38 36 34 34 34 34
30 31 33 34 35 34 34 34 34 37 37 43 37 36 36 40 47 54 40 45 45 49 50 49 47 46 46 43 45 46 46 46 44 44 42 40 40 40 37 36 35 35 35
33 33 35 35 33 31 32 33 35 38 37 39 39 40 40 39 39 42 53 49 47 46 47 48 47 45 43 44 45 45 47 46 45 43 43 38 35 34 34 34 35 36 34
36 35 36 32 30 31 34 35 36 35 35 34 37 37 38 39 41 41 45 46 47 45 45 42 42 41 40 40 43 45 45 44 43 41 39 37 34 33 33 33 34 35 36
41 38 32 30 30 31 33 34 35 34 33 35 35 35 33 34 34 36 38 42 42 42 36 38 38 39 37 37 37 39 40 40 39 39 39 37 35 33 31 31 32 33 34
39 33 28 27 29 30 34 32 30 30 31 33 33 32 33 32 31 31 34 39 44 38 38 39 36 38 36 36 33 35 35 34 31 33 35 36 38 39 37 32 30 30 31
36 28 26 29 33 34 33 30 31 32 31 31 31 31 31 31 29 30 30 32 36 47 49 40 39 34 38 36 34 32 32 30 26 25 27 30 33 36 40 39 35 32 31
31 27 27 33 32 30 31 29 28 28 29 30 29 29 29 29 30 31 33 35 35 39 50 42 43 39 37 38 32 29 30 29 26 23 24 26 29 32 36 40 41 39 36
29 27 29 30 29 33 31 27 26 27 29 29 26 26 26 29 34 35 37 38 38 37 42 43 39 39 41 37 32 29 29 28 26 25 24 26 27 30 32 35 37 38 36
29 29 29 29 33 33 26 24 25 26 26 24 25 27 31 34 35 35 36 37 36 35 37 42 38 37 37 33 27 29 27 27 28 25 25 26 27 28 30 33 33 33 34
32 31 32 33 31 26 22 22 22 24 23 25 27 30 33 34 35 35 35 34 34 32 32 33 36 31 32 30 31 31 29 27 26 27 25 24 25 26 27 29 34 32 31
34 34 32 29 25 21 21 21 23 22 24 26 30 32 33 33 34 33 31 31 30 33 34 33 34 35 32 28 29 32 33 30 31 29 28 24 24 25 25 24 28 32 31
33 32 29 24 21 22 23 23 23 25 27 30 32 33 33 32 31 30 29 30 30 29 29 30 29 32 31 27 28 29 32 32 33 31 31 30 27 25 25 22 24 22 28
35 31 24 23 22 22 23 24 27 27 29 32 34 34 32 32 28 28 28 26 25 26 25 25 28 29 29 29 30 31 31 32 33 27 30 33 30 29 25 24 21 19 25
31 27 23 21 20 22 25 28 28 30 31 32 34 34 32 29 29 26 24 23 23 22 20 21 27 28 29 25 30 35 34 33 33 31 32 37 31 33 29 27 21 18 18
27 24 22 18 19 23 26 28 30 30 30 32 32 30 30 27 26 25 23 24 25 21 15 16 17 22 25 29 33 34 35 35 33 32 29 35 31 33 31 32 28 25 23
24 20 18 18 22 24 26 29 29 29 30 31 30 29 28 26 25 26 26 24 24 19 14 10 10 15 33 35 32 27 31 32 33 32 28 33 31 32 31 34 33 31 29
21 17 18 19 21 24 27 28 29 29 31 31 30 29 27 27 28 28 25 26 21 19 15 12 8 1 25 31 33 33 32 29 27 27 27 28 27 26 27 26 28 32 33
Wind_Direction
355 354 353 355 354 352 351 349 348 346 346 344 342 342 342 342 339 334 330 326 323 318 313 311 308 304 300 302 308 309 308 305 298 293 294 293 289 285 287 276 272 268 263
354 348 347 349 350 349 347 345 343 343 344 343 342 343 342 341 338 335 332 328 324 323 320 317 313 311 307 301 298 299 302 302 301 294 288 287 286 286 281 283 279 275 260
348 350 345 343 342 342 340 340 340 341 339 339 336 336 334 333 332 332 333 332 330 328 325 323 319 316 310 304 301 298 296 297 297 298 295 287 285 284 283 280 279 274 272
345 347 345 344 343 343 341 339 338 336 336 333 330 330 329 328 328 329 329 328 326 324 322 320 317 315 313 310 304 299 295 292 293 291 292 292 288 284 283 282 279 277 273
349 349 345 344 343 342 340 339 338 335 333 330 328 328 326 327 327 328 327 325 324 323 320 317 315 312 309 306 304 302 297 292 287 289 288 286 287 285 284 282 280 278 276
346 345 342 342 342 339 338 338 336 335 333 329 327 324 324 324 326 326 325 323 321 319 317 314 311 308 306 303 301 299 298 295 289 284 284 285 283 283 283 282 281 278 276
346 344 341 341 340 338 337 336 335 333 331 330 325 322 321 321 321 320 320 319 318 317 315 312 309 306 303 299 296 295 294 293 292 286 281 281 280 278 279 279 279 278 276
345 344 341 339 339 337 336 335 334 332 331 332 325 322 318 316 315 316 315 315 314 314 312 311 308 304 301 298 295 291 290 289 288 287 282 279 280 275 274 276 277 276 275
345 343 342 339 336 334 332 332 332 331 328 328 329 324 317 312 314 316 313 314 314 313 311 309 305 302 300 296 294 291 288 285 285 284 283 279 275 278 272 273 275 275 273
342 338 334 333 331 331 331 332 333 333 331 326 327 326 323 317 314 310 313 312 311 310 308 307 304 300 298 295 293 290 288 284 282 281 281 281 276 273 272 270 272 273 271
336 335 333 333 334 336 336 335 334 333 332 327 326 324 321 319 316 313 309 311 311 311 310 307 304 301 297 294 292 290 287 285 281 280 278 278 278 274 270 270 271 269 271
336 336 335 337 340 339 337 335 334 333 333 333 330 328 325 322 319 318 314 314 314 315 316 313 308 306 303 299 295 292 288 285 281 278 277 275 273 273 271 271 270 270 268
334 335 337 338 338 337 337 336 334 333 333 333 330 329 328 327 326 324 321 319 318 318 319 317 314 312 308 306 302 298 292 288 283 277 275 273 272 272 271 270 271 269 267
333 335 335 336 337 335 333 333 331 331 330 332 331 330 329 329 329 329 326 322 318 319 319 316 316 310 310 309 306 305 301 294 291 284 276 274 270 269 266 268 269 271 269
332 334 337 336 334 335 333 332 331 332 333 333 332 332 330 330 332 332 331 329 323 315 309 314 314 315 305 304 303 304 305 297 297 292 288 281 276 271 267 264 263 267 268
337 335 335 335 334 333 332 331 331 334 333 334 335 335 334 333 332 331 327 325 322 317 307 312 307 306 304 298 300 298 302 304 298 297 294 291 283 277 271 265 261 260 264
336 334 332 332 332 333 333 333 334 336 337 337 339 340 339 336 331 328 326 323 321 318 312 311 310 303 296 294 292 292 291 298 300 296 296 295 291 283 276 269 262 259 257
337 333 334 334 332 333 335 337 338 338 340 344 343 339 335 334 331 330 328 325 324 322 316 312 312 307 298 291 288 289 288 287 293 299 296 294 294 291 281 270 263 258 253
339 337 335 333 336 339 341 342 345 346 346 345 342 339 336 335 332 331 330 328 327 326 323 321 316 313 303 291 288 284 284 283 287 289 293 295 296 298 294 275 259 258 254
338 337 338 338 342 347 346 345 347 349 347 345 342 339 338 336 335 334 334 333 331 326 322 316 315 313 306 297 287 280 277 280 280 282 282 289 291 294 297 288 264 255 249
341 339 341 345 348 347 345 346 348 348 346 343 342 341 340 339 336 336 336 335 332 329 326 321 316 309 307 301 290 284 278 279 277 277 275 276 281 286 289 282 266 262 252
342 342 345 346 346 348 349 348 347 346 346 344 343 343 343 342 342 342 339 338 337 334 328 324 318 311 303 299 294 284 277 276 275 277 274 270 273 272 280 273 278 264 246
345 348 350 349 352 352 348 345 347 347 347 347 346 346 347 349 347 348 348 346 342 341 339 333 322 314 307 302 289 278 274 272 272 276 275 266 268 264 266 261 268 266 255
343 346 351 358 356 351 350 349 348 350 350 350 351 352 352 353 355 355 353 354 352 350 341 338 333 324 314 299 280 274 273 270 273 275 274 264 266 262 260 256 259 260 260
353 358 0 359 352 351 352 350 352 352 353 354 356 356 358 357 359 357 358 359 360 359 355 338 336 335 289 268 271 281 270 265 267 268 271 260 263 262 261 257 257 258 259
353 1 2 1 358 353 353 354 355 356 355 357 360 360 2 360 0 3 7 6 6 10 9 9 7 320 257 273 269 266 264 264 268 270 267 258 262 263 261 263 263 260 260